DECAYED

FENGYUN 1C DEB, 36228 (Decayed)

Orbit data source: Space-Track

FENGYUN 1C DEB, 36228 was space debris in SSO originally from a launch on Mon, 10 May 1999 UTC launched from the Taiyaun Space Center, China (TSC). Fengyun 1C debris stems from the Chinese weather satellite Fengyun-1C, which was intentionally destroyed by a Chinese anti-satellite missile in 2007. This event dramatically increased the amount of space debris, with thousands of trackable fragments posing hazards to satellites and human spaceflight. The Fengyun 1C debris cloud has become a focal point in discussions about space sustainability and the need for international regulations to prevent the creation of new debris.

Not visible in the next 10 days
Identifier
36228, 1999-025DVD
Orbit
Decayed
Country
Flag of CNCN / PRC
Related business
Manufacturer
Unknown
Mission
Decayed spacecraft
Bus & Motor
Unknown
Mass
Unknown
Launch date (UTC)
1999-05-10 (27 years ago)
Launch vehicle
Unknown
Launch site
Taiyaun Space Center, China (TSC)
Object type
Payload
Rocket body
Debris
Shape & HBR
Unknown shape, 0.1 m
Radar Cross Section
Small (<0.1 m²)

Expand to show TLE details & history
Last TLE update: 1 year ago

TLE from 1 year ago
0 FENGYUN 1C DEB
1 36228U 99025DVD 25082.48490613  .01727019  00000-0  21046-1 0  9999
2 36228  99.2391 356.5714 0025123 108.3803 252.0181 15.57211232862388
Epoch: 2025-03-23T11:38Z
TLE epoch observation values (Epoch: 2025-03-23T11:38:15.889Z)
Latitude
-0.00007°
Longitude
0.79026°
Altitude
404.107 km
Speed
7.665 km/s
True Right ascension
23h 46m 17s
True Declination
0° 00' 00"
Sunlit
Object was in daylight at epoch
Visualization orbit readout
Latitude
Unknown
Longitude
Unknown
Altitude
Unknown
Speed
Unknown
Apparent Right ascension
Unknown
Apparent Declination
Unknown
Sunlit
N/A
Visualization observer readout
Local Sidereal Time
16:08:36
Azimuth
Unknown
Elevation
Unknown
Doppler factor
Unknown
Orbital elements
Apogee altitude
409.749 km
Perigee altitude
375.728 km
Semi-major axis
6,770.875 km
Eccentricity
0.00251
Inclination
99.2391°
RAAN
356.5714°
Arg. of periapsis
108.3803°
True anomaly
251.74454°
Mean anomaly
252.0181°
Eccentric anomaly
251.88129°
Mean motion
3.89561 °/min
Orbital period
92.41 mins
BSTAR
0.021046
Loading maneuver chart data...
Computing Atmospheric mass density...

Documentation

Showing up to 5 results
|